User: anonymous   Login
Location: Pine Mountain Observatory
(43.7910°N, 120.9377°W)
Time: 04:03:29
(UTC-07:00)
Language:

IDEFIX/ARIANE 42P - Orbit

View from above orbital plane
View from above orbital plane
View from above satellite
View from above satellite

Ground track
Ground track

The orbit data is extracted from the following two-line orbital elements,

1 27422U 02021B   18144.93209625 -.00000018 +00000-0 +89873-5 0  9996
2 27422 098.2549 131.7226 0011242 308.0283 051.9884 14.29262142837389
Epoch (UTC): 24 May 2018 22:22:13
Eccentricity: 0.0011242
inclination: 98.2549°
perigee height: 786 km
apogee height: 802 km
right ascension of ascending node: 131.7226°
argument of perigee: 308.0283°
revolutions per day: 14.29262142
mean anomaly at epoch: 51.9884°
orbit number at epoch: 83738

The dashed part of the orbit path shows where the satellite is in the earth's shadow,  

DLR